Location: Prague
(50.0830°N, 14.4670°E)
Time: 02:02:06
(UTC+02:00)

Envisat - Pass Details

Date: 03 October 2021
Orbit: 764 x 766 km, 98.2° (Epoch: 20 October)

Event Time Altitude Azimuth Distance (km) Brightness Sun altitude
Rises 05:57:33 0° 17° (NNE) 3,243 6.6 -11.7°
Reaches altitude 10° 05:59:56 10° 22° (NNE) 2,312 5.9 -11.3°
Maximum altitude 06:04:55 54° 100° (E) 923 3.9 -10.5°
Drops below altitude 10° 06:09:53 10° 178° (S) 2,295 5.4 -9.7°
Sets 06:12:13 0° 183° (S) 3,216 6.1 -9.3°
